�������l�o���
Date,Time,MP-1(��Sv/h),MP-2(��Sv/h),MP-3(��Sv/h),MP-4(��Sv/h),MP-5(��Sv/h),MP-6(��Sv/h),MP-7(��Sv/h),MP-8(��Sv/h),����,����(m/s),���J
2018/08/26,00:00,0.868,1.268,0.897,1.599,1.166,0.479,0.845,0.792,�k��,5.1,��
2018/08/26,00:10,0.869,1.267,0.897,1.599,1.167,0.478,0.844,0.794,�k��,6.2,��
2018/08/26,00:20,0.869,1.268,0.897,1.598,1.168,0.476,0.845,0.794,���k��,3.6,��
2018/08/26,00:30,0.865,1.267,0.894,1.600,1.166,0.479,0.844,0.794,��,2.9,��
2018/08/26,00:40,0.865,1.268,0.895,1.597,1.166,0.477,0.844,0.792,�쐼,2.6,��
2018/08/26,00:50,0.868,1.270,0.895,1.598,1.166,0.478,0.845,0.792,���쐼,3.5,��
2018/08/26,01:00,0.867,1.268,0.896,1.597,1.167,0.479,0.843,0.794,���쐼,2.9,��
2018/08/26,01:10,0.867,1.269,0.896,1.599,1.165,0.478,0.842,0.794,��,3.1,��
2018/08/26,01:20,0.867,1.269,0.896,1.596,1.165,0.475,0.843,0.793,���쐼,1.7,��
2018/08/26,01:30,0.868,1.271,0.898,1.597,1.167,0.478,0.844,0.794,��,1.2,��
2018/08/26,01:40,0.869,1.269,0.895,1.598,1.169,0.477,0.843,0.793,���k��,2.3,��
2018/08/26,01:50,0.867,1.268,0.896,1.596,1.168,0.476,0.843,0.793,���쐼,1.4,��
2018/08/26,02:00,0.868,1.266,0.897,1.599,1.167,0.478,0.843,0.794,��,2.0,��
2018/08/26,02:10,0.866,1.269,0.896,1.598,1.166,0.478,0.843,0.793,��,2.3,��
2018/08/26,02:20,0.867,1.267,0.896,1.599,1.167,0.479,0.843,0.793,��,2.0,��
2018/08/26,02:30,0.868,1.266,0.896,1.597,1.166,0.477,0.843,0.794,��쐼,1.4,��
2018/08/26,02:40,0.869,1.269,0.896,1.600,1.167,0.478,0.843,0.794,���쐼,1.5,��
2018/08/26,02:50,0.867,1.266,0.896,1.599,1.167,0.478,0.845,0.794,���쐼,1.7,��
2018/08/26,03:00,0.867,1.267,0.898,1.599,1.169,0.478,0.846,0.794,���쐼,2.6,��
2018/08/26,03:10,0.868,1.267,0.897,1.594,1.168,0.479,0.842,0.795,���쐼,2.5,��
2018/08/26,03:20,0.868,1.269,0.895,1.599,1.167,0.478,0.844,0.795,��,1.7,��
2018/08/26,03:30,0.869,1.269,0.897,1.598,1.169,0.479,0.843,0.796,�k��,0.9,��
2018/08/26,03:40,0.867,1.269,0.896,1.596,1.168,0.479,0.843,0.794,�k��,1.5,��
2018/08/26,03:50,0.866,1.269,0.896,1.599,1.166,0.479,0.843,0.795,���k��,2.8,��
2018/08/26,04:00,0.867,1.267,0.897,1.599,1.169,0.478,0.845,0.794,���k��,4.1,�L
2018/08/26,04:10,0.867,1.268,0.897,1.595,1.166,0.480,0.846,0.796,��,4.5,��
2018/08/26,04:20,0.866,1.268,0.896,1.598,1.165,0.479,0.844,0.794,���k��,3.8,��
2018/08/26,04:30,0.867,1.266,0.899,1.601,1.166,0.477,0.847,0.795,���k��,3.0,��
2018/08/26,04:40,0.870,1.268,0.899,1.598,1.167,0.478,0.845,0.794,���k��,3.7,��
2018/08/26,04:50,0.869,1.269,0.895,1.598,1.167,0.479,0.845,0.793,��,4.0,��
2018/08/26,05:00,0.867,1.269,0.898,1.600,1.165,0.477,0.845,0.794,��,3.5,��
2018/08/26,05:10,0.867,1.269,0.894,1.598,1.166,0.478,0.845,0.795,���k��,2.9,��
2018/08/26,05:20,0.868,1.267,0.898,1.597,1.167,0.478,0.845,0.795,��,3.0,��
2018/08/26,05:30,0.866,1.268,0.896,1.599,1.166,0.478,0.845,0.796,��,3.9,��
2018/08/26,05:40,0.869,1.266,0.899,1.601,1.165,0.478,0.842,0.794,��,5.6,��
2018/08/26,05:50,0.869,1.268,0.899,1.600,1.166,0.478,0.844,0.793,��,4.5,��
2018/08/26,06:00,0.867,1.270,0.895,1.600,1.167,0.478,0.845,0.795,���쐼,4.2,��
2018/08/26,06:10,0.866,1.267,0.896,1.600,1.166,0.478,0.844,0.797,��,4.4,��
2018/08/26,06:20,0.869,1.266,0.896,1.600,1.165,0.478,0.844,0.796,��,4.8,��
2018/08/26,06:30,0.868,1.267,0.898,1.597,1.164,0.480,0.845,0.794,��,5.0,��
2018/08/26,06:40,0.869,1.267,0.897,1.598,1.167,0.478,0.845,0.796,��,4.8,��
2018/08/26,06:50,0.870,1.266,0.898,1.602,1.166,0.479,0.844,0.796,��,5.4,��
2018/08/26,07:00,0.868,1.268,0.897,1.595,1.167,0.481,0.846,0.794,��,4.9,��
2018/08/26,07:10,0.870,1.270,0.898,1.598,1.166,0.481,0.847,0.796,���쐼,4.0,��
2018/08/26,07:20,0.869,1.270,0.898,1.599,1.166,0.478,0.847,0.796,���쐼,5.0,��
2018/08/26,07:30,0.870,1.269,0.899,1.601,1.168,0.479,0.845,0.794,��,4.7,��
2018/08/26,07:40,0.870,1.271,0.899,1.601,1.167,0.479,0.846,0.796,���쐼,4.2,��
2018/08/26,07:50,0.869,1.271,0.901,1.599,1.170,0.480,0.845,0.795,��,4.4,��
2018/08/26,08:00,0.871,1.269,0.898,1.600,1.168,0.481,0.846,0.796,���쐼,4.0,��
2018/08/26,08:10,0.869,1.270,0.899,1.598,1.170,0.480,0.846,0.797,���쐼,3.2,��
2018/08/26,08:20,0.873,1.272,0.899,1.600,1.169,0.481,0.848,0.794,���쐼,3.9,��
2018/08/26,08:30,0.869,1.271,0.899,1.602,1.164,0.480,0.848,0.797,���쐼,3.6,��
2018/08/26,08:40,0.870,1.272,0.899,1.604,1.166,0.480,0.848,0.796,��,2.5,��
2018/08/26,08:50,0.870,1.270,0.899,1.605,1.168,0.478,0.847,0.794,���k��,3.0,��
2018/08/26,09:00,0.868,1.267,0.897,1.604,1.167,0.479,0.846,0.793,���k��,4.0,��
2018/08/26,09:10,0.869,1.268,0.896,1.605,1.166,0.480,0.846,0.794,���k��,2.9,��
2018/08/26,09:20,0.870,1.270,0.898,1.605,1.169,0.479,0.844,0.793,��,4.1,��
2018/08/26,09:30,0.869,1.270,0.899,1.601,1.167,0.480,0.843,0.794,���쐼,5.9,��
2018/08/26,09:40,0.870,1.274,0.898,1.604,1.170,0.478,0.846,0.793,�쐼,5.0,��
2018/08/26,09:50,0.871,1.274,0.898,1.606,1.171,0.478,0.844,0.794,���쐼,6.1,��
2018/08/26,10:00,0.870,1.275,0.901,1.604,1.173,0.480,0.845,0.793,��,2.6,��
2018/08/26,10:10,0.870,1.272,0.899,1.606,1.174,0.480,0.845,0.796,��쓌,3.6,��
2018/08/26,10:20,0.870,1.275,0.899,1.606,1.171,0.479,0.846,0.794,��,1.7,��
2018/08/26,10:30,0.872,1.275,0.901,1.605,1.174,0.480,0.845,0.795,�쐼,0.9,��
2018/08/26,10:40,0.873,1.275,0.902,1.606,1.174,0.480,0.846,0.795,��쐼,1.4,��
2018/08/26,10:50,0.874,1.276,0.899,1.607,1.175,0.480,0.846,0.794,��쓌,2.5,��
2018/08/26,11:00,0.873,1.274,0.903,1.607,1.178,0.479,0.844,0.794,�쓌,4.3,��
2018/08/26,11:10,0.873,1.274,0.900,1.610,1.179,0.480,0.846,0.794,��,2.0,��
2018/08/26,11:20,0.873,1.279,0.900,1.607,1.179,0.482,0.848,0.795,��쓌,4.1,��
2018/08/26,11:30,0.875,1.278,0.900,1.606,1.178,0.480,0.845,0.796,��쓌,4.7,��
2018/08/26,11:40,0.872,1.279,0.902,1.603,1.177,0.479,0.845,0.794,��쓌,3.5,��
2018/08/26,11:50,0.874,1.282,0.902,1.605,1.177,0.481,0.846,0.796,��쓌,3.1,��
2018/08/26,12:00,0.873,1.279,0.902,1.604,1.177,0.481,0.846,0.795,��쓌,3.9,��
2018/08/26,12:10,0.874,1.280,0.904,1.604,1.176,0.481,0.848,0.796,��쓌,4.8,��
2018/08/26,12:20,0.874,1.278,0.903,1.602,1.177,0.480,0.849,0.795,��쓌,5.4,��
2018/08/26,12:30,0.875,1.278,0.904,1.603,1.177,0.481,0.846,0.795,��,6.2,��
2018/08/26,12:40,0.874,1.276,0.903,1.604,1.179,0.479,0.848,0.798,��,5.2,��
2018/08/26,12:50,0.876,1.275,0.903,1.604,1.174,0.480,0.849,0.796,��,4.5,��
2018/08/26,13:00,0.875,1.277,0.902,1.606,1.180,0.480,0.851,0.798,��,4.6,��
2018/08/26,13:10,0.875,1.275,0.902,1.610,1.178,0.478,0.850,0.797,��,4.6,��
2018/08/26,13:20,0.876,1.279,0.905,1.608,1.177,0.482,0.849,0.797,��쓌,5.3,��
2018/08/26,13:30,0.875,1.280,0.904,1.607,1.178,0.480,0.848,0.799,��,4.6,��
2018/08/26,13:40,0.875,1.279,0.904,1.607,1.176,0.481,0.848,0.798,��,4.7,��
2018/08/26,13:50,0.876,1.278,0.903,1.607,1.175,0.482,0.850,0.796,��,4.0,��
2018/08/26,14:00,0.875,1.278,0.904,1.607,1.178,0.480,0.849,0.796,��,3.0,��
2018/08/26,14:10,0.874,1.278,0.903,1.606,1.179,0.482,0.849,0.797,�쐼,2.3,��
2018/08/26,14:20,0.873,1.278,0.902,1.608,1.180,0.480,0.848,0.796,�쐼,2.0,��
2018/08/26,14:30,0.876,1.278,0.904,1.610,1.179,0.480,0.847,0.801,��,1.2,��
2018/08/26,14:40,0.877,1.277,0.904,1.611,1.180,0.479,0.848,0.795,�k��,2.2,��
2018/08/26,14:50,0.874,1.277,0.903,1.611,1.179,0.480,0.849,0.797,��,5.1,��
2018/08/26,15:00,0.875,1.278,0.904,1.608,1.181,0.482,0.849,0.798,��,4.9,��
2018/08/26,15:10,0.872,1.279,0.902,1.607,1.178,0.479,0.850,0.797,���k��,5.5,��
2018/08/26,15:20,0.872,1.281,0.903,1.611,1.180,0.480,0.849,0.797,�k��,5.2,��
2018/08/26,15:30,0.872,1.278,0.903,1.608,1.181,0.481,0.848,0.799,�k�k��,3.5,��
2018/08/26,15:40,0.873,1.281,0.901,1.609,1.181,0.481,0.847,0.798,�k�k��,3.4,��
2018/08/26,15:50,0.870,1.278,0.899,1.611,1.182,0.479,0.847,0.795,�k,3.8,��
2018/08/26,16:00,0.872,1.277,0.904,1.610,1.179,0.479,0.848,0.797,�k�k��,5.2,��
2018/08/26,16:10,0.870,1.276,0.901,1.612,1.178,0.480,0.846,0.796,�k�k��,4.9,��
2018/08/26,16:20,0.872,1.275,0.901,1.614,1.179,0.479,0.847,0.798,�k�k��,5.0,��
2018/08/26,16:30,0.874,1.276,0.898,1.610,1.178,0.479,0.848,0.794,�k�k��,3.5,��
2018/08/26,16:40,0.870,1.277,0.902,1.610,1.177,0.477,0.847,0.795,�k,4.4,��
2018/08/26,16:50,0.870,1.275,0.899,1.609,1.178,0.479,0.848,0.797,�k�k��,4.4,��
2018/08/26,17:00,0.871,1.276,0.899,1.609,1.177,0.478,0.847,0.795,�k��,4.4,��
2018/08/26,17:10,0.871,1.275,0.902,1.609,1.176,0.477,0.844,0.795,�k�k��,3.8,��
2018/08/26,17:20,0.870,1.273,0.900,1.608,1.177,0.477,0.846,0.795,�k�k��,2.6,��
2018/08/26,17:30,0.871,1.278,0.898,1.610,1.174,0.475,0.845,0.795,�k�k��,1.2,��
2018/08/26,17:40,0.870,1.276,0.898,1.609,1.177,0.476,0.847,0.796,�k�k��,2.0,��
2018/08/26,17:50,0.868,1.276,0.899,1.608,1.177,0.476,0.846,0.795,�k��,2.8,��
2018/08/26,18:00,0.871,1.275,0.899,1.607,1.177,0.477,0.846,0.794,�k��,1.5,��
2018/08/26,18:10,0.869,1.276,0.898,1.610,1.176,0.476,0.846,0.796,��,1.5,��
2018/08/26,18:20,0.869,1.276,0.899,1.610,1.173,0.478,0.845,0.796,��,2.9,��
2018/08/26,18:30,0.869,1.275,0.901,1.608,1.176,0.477,0.844,0.794,���쐼,2.0,��
2018/08/26,18:40,0.869,1.276,0.898,1.605,1.172,0.477,0.847,0.796,��,2.5,��
2018/08/26,18:50,0.871,1.274,0.898,1.606,1.172,0.478,0.846,0.797,���k��,2.9,��
2018/08/26,19:00,0.872,1.274,0.900,1.607,1.176,0.478,0.845,0.795,���k��,4.1,��
2018/08/26,19:10,0.868,1.275,0.900,1.609,1.176,0.477,0.844,0.796,��,4.7,��
2018/08/26,19:20,0.871,1.276,0.901,1.607,1.175,0.480,0.847,0.796,��,3.5,��
2018/08/26,19:30,0.871,1.275,0.900,1.607,1.174,0.476,0.846,0.796,��,3.6,��
2018/08/26,19:40,0.871,1.276,0.900,1.608,1.176,0.477,0.847,0.795,��,3.8,��
2018/08/26,19:50,0.871,1.276,0.900,1.607,1.176,0.480,0.846,0.795,��,3.7,��
2018/08/26,20:00,0.871,1.275,0.899,1.609,1.173,0.478,0.844,0.798,��,1.7,��
2018/08/26,20:10,0.871,1.277,0.899,1.608,1.177,0.478,0.845,0.797,�k�k��,2.0,��
2018/08/26,20:20,0.869,1.275,0.899,1.605,1.176,0.477,0.846,0.797,�k,1.4,��
2018/08/26,20:30,0.871,1.276,0.900,1.606,1.176,0.477,0.846,0.797,�k�k��,4.6,��
2018/08/26,20:40,0.870,1.277,0.899,1.607,1.174,0.479,0.845,0.795,�k�k��,5.2,��
2018/08/26,20:50,0.870,1.275,0.899,1.606,1.174,0.477,0.847,0.795,�k,4.6,��
2018/08/26,21:00,0.869,1.274,0.899,1.607,1.176,0.479,0.843,0.796,�k�k��,2.6,��
2018/08/26,21:10,0.871,1.275,0.897,1.606,1.176,0.477,0.845,0.795,�k��,2.0,��
2018/08/26,21:20,0.869,1.274,0.898,1.608,1.175,0.478,0.843,0.794,�k,1.9,��
2018/08/26,21:30,0.868,1.273,0.900,1.608,1.175,0.478,0.844,0.795,���k��,1.1,��
2018/08/26,21:40,0.868,1.275,0.898,1.607,1.176,0.477,0.843,0.795,��,2.2,��
2018/08/26,21:50,0.870,1.275,0.898,1.606,1.176,0.477,0.845,0.794,���k��,2.2,��
2018/08/26,22:00,0.868,1.276,0.899,1.606,1.172,0.477,0.843,0.795,���k��,2.6,��
2018/08/26,22:10,0.869,1.277,0.898,1.606,1.178,0.477,0.843,0.796,�k��,1.9,��
2018/08/26,22:20,0.869,1.274,0.900,1.606,1.175,0.476,0.845,0.794,�k�k��,1.4,��
2018/08/26,22:30,0.869,1.275,0.896,1.608,1.172,0.476,0.845,0.794,�k,4.1,��
2018/08/26,22:40,0.867,1.275,0.897,1.608,1.174,0.477,0.844,0.795,�k�k��,4.4,��
2018/08/26,22:50,0.868,1.274,0.899,1.606,1.173,0.477,0.843,0.794,�k��,4.0,��
2018/08/26,23:00,0.869,1.274,0.900,1.608,1.174,0.478,0.843,0.796,�k�k��,2.5,��
2018/08/26,23:10,0.869,1.271,0.897,1.606,1.174,0.477,0.845,0.794,-,CALM,��
2018/08/26,23:20,0.868,1.275,0.900,1.605,1.173,0.476,0.846,0.796,���k��,2.5,��
2018/08/26,23:30,0.869,1.273,0.900,1.608,1.174,0.475,0.846,0.794,�k��,3.4,��
2018/08/26,23:40,0.867,1.275,0.899,1.605,1.173,0.476,0.844,0.796,�k��,2.9,��
2018/08/26,23:50,0.870,1.273,0.898,1.605,1.174,0.477,0.845,0.795,���k��,1.7,��
